www.pogodaiklimat.ru

Погода и климат >> Архив погоды >> Россия >> Ульяновская область >> Димитровград


ПОГОДА в Димитровграде

АРХИВ ПОГОДЫ в Димитровграде

Время (UTC), дата Ветер
(напр.,м/с)
 
Видим.   Явления Облачность Т
(С)
Тd
(С)
f
(%)
Тe
(С)
Тes
(С)
Комфортность P
(гПа)
Po
(гПа)
Тmin
(С)
Tmax
(С)
R
(мм)
R24
(мм)
S
(см)
03 14.09 штиль 0 10 км ясно +7.0 +6.4 96 +6 +6 прохладно 1018.4 1009.4 +6.4
06 14.09 ЮЗ 2 10 км 3/0
[Ci fib]
+19.9 +7.7 45 +21 +26 комфорт 1016.8 1008.2
09 14.09 ЮЗ 3 10 км 1/0
[Ci fib]
+25.0 +6.0 30 +25 +32 комфорт 1014.8 1006.4
12 14.09 ЮЗ 3 10 км 4/3 900 м
[Cu med, cong Ci fib]
+26.1 +4.0 24 +25 +27 комфорт 1012.8 1004.5
15 14.09 Ю 1 10 км 8/0
[Ac As]
+21.4 +5.7 36 +22 +22 комфорт 1011.9 1003.4 +26.3
18 14.09 З 2 10 км 10/0
[Ac und]
+19.4 +7.9 47 +21 +21 комфорт 1011.6 1003.1
21 14.09 СЗ 3 10 км 8/0
[Cs]
+16.2 +10.4 68 +16 +16 тепло 1012.1 1003.5
00 15.09 СЗ 1 10 км 8/0
[Ci sp]
+13.1 +10.7 85 +13 +13 тепло 1012.7 1003.9
03 15.09 ЮЗ 1 10 км слаб. дождь 10/0 750 м
[As op]
+11.5 +10.4 93 +11 +11 по сезону 1012.9 1004.1 +11.5 2
06 15.09 З 1 10 км слаб. ливневой дождь 10/10 750 м
[Cb cap]
+12.5 +10.9 90 +12 +12 по сезону 1013.3 1004.5 +11.4
09 15.09 З 2 10 км {ливн. осадки} 5/4 800 м
[Cu med, cong Ac trans]
+16.5 +8.3 58 +17 +21 тепло 1012.9 1004.2
12 15.09 СЗ 3 10 км {ливн. осадки} 4/3 600 м
[Cb cap Ci fib]
+16.5 +5.2 47 +16 +18 по сезону 1012.4 1003.7
15 15.09 З 1 10 км 1/0
[Ac trans]
+11.4 +5.7 68 +11 +11 по сезону 1012.1 1003.3 +18.3 2
18 15.09 З 2 10 км 3/0
[Ac trans]
+11.0 +3.9 62 +10 +10 по сезону 1012.4 1003.6
21 15.09 Ю 1 10 км 3/0
[Ci fib]
+8.7 +4.7 76 +8 +8 по сезону 1011.9 1003.0
00 16.09 штиль 0 10 км 10/0
[Ac und]
+7.3 +5.6 89 +6 +6 по сезону 1011.5 1002.6
03 16.09 Ю 1 10 км 8/4 900 м
[Sc Ac cast Ci sp]
+9.3 +7.2 87 +9 +9 по сезону 1009.9 1001.1 +6.8
06 16.09 Ю 3 10 км слаб. дождь 10/0
[As op]
+11.5 +6.3 70 +10 +11 по сезону 1007.7 998.9
09 16.09 ЮЗ 5
{11}
4000 м слаб. дождь 10/10 750 м
[Frnb Ns]
+11.0 +6.8 75 +8 +8 холодно 1006.1 997.3
12 16.09 Ю 3
{11}
10 км в посл. час дождь 10/10 720 м
[Frnb Ns]
+10.4 +8.6 89 +8 +8 очень
холодно
1003.7 994.9
15 16.09 ЮЗ 2
{10}
10 км слаб. дождь 10/10 720 м
[Frnb Ns]
+11.5 +9.0 85 +10 +10 прохладно 1002.0 993.3 +12.1 7
18 16.09 З 1 10 км в посл. час дождь 10/10 800 м
[Frnb Ns]
+10.4 +8.9 90 +10 +10 по сезону 1001.6 992.8
21 16.09 ЮЗ 2 10 км 10/10 840 м
[Sc]
+9.8 +7.7 87 +8 +8 по сезону 1001.1 992.3
00 17.09 ЮЗ 1 10 км 10/10 870 м
[Sc]
+7.1 +5.9 92 +6 +6 по сезону 1001.6 992.8
03 17.09 ЮВ 1 10 км 8/0
[Ci fib]
+7.5 +6.7 95 +6 +7 по сезону 1001.5 992.7 +6.9 2
06 17.09 ЮЗ 3 10 км 8/4 840 м
[Sc Cs]
+13.1 +9.0 76 +12 +14 по сезону 1001.8 993.2
09 17.09 ЮЗ 4 10 км 8/4 800 м
[Cb cap Ci fib]
+17.1 +8.0 55 +17 +19 тепло 1000.9 992.4
12 17.09 ЮЗ 3
{10}
10 км 8/8 840 м
[Cb cap]
+19.1 +3.9 37 +20 +20 тепло 1000.0 991.5
15 17.09 ЮЗ 1 10 км 4/4 840 м
[Sc]
+14.4 +8.1 66 +15 +15 тепло 999.7 991.1 +19.5
18 17.09 штиль 0 10 км 1/0
[Cc]
+10.3 +6.9 79 +10 +10 по сезону 999.9 991.2
21 17.09 штиль 0 10 км 8/0
[Ci fib]
+8.4 +6.3 87 +8 +8 по сезону 1000.2 991.5
00 18.09 штиль 0 10 км 6/0
[Ci fib]
+6.4 +5.3 93 +5 +5 по сезону 1000.9 992.0
03 18.09 штиль 0 10 км 1/0
[Ci fib]
+4.3 +3.7 96 +3 +3 холодно 1001.8 992.9 +4.1
06 18.09 ЮЗ 2 10 км 8/0
[Ci fib]
+15.3 +5.3 51 +15 +19 тепло 1002.2 993.6
09 18.09 ЮЗ 3
{10}
10 км 9/8 900 м
[Cu med, cong Ci sp]
+16.1 +3.9 44 +16 +17 тепло 1002.4 993.8
12 18.09 ЮЗ 2 10 км 9/8 870 м
[Cb cap Ci sp]
+16.1 +3.8 44 +16 +17 по сезону 1002.4 993.8
15 18.09 СЗ 2 10 км 10/10 800 м
[Frnb]
+12.3 +5.4 63 +12 +12 по сезону 1002.1 993.4 +17.4
18 18.09 Ю 1 10 км слаб. дождь 10/0 800 м
[As op]
+9.6 +7.6 87 +9 +9 по сезону 1000.8 992.1
21 18.09 СВ 1 10 км слаб. дождь 10/0 750 м
[As op]
+8.4 +7.2 92 +8 +8 по сезону 996.3 987.6
00 19.09 С 3 4000 м дождь 10/10 720 м
[Frnb Ns]
+7.6 +6.8 95 +5 +5 по сезону 990.8 982.1
03 19.09 СЗ 4
{10}
4000 м дождь 10/10 720 м
[Frnb Ns]
+7.1 +6.2 94 +3 +3 прохладно 987.9 979.2 +7.1 34
06 19.09 СЗ 3
{11}
10 км слаб. дождь 10/10 700 м
[Frnb Ns]
+8.3 +6.9 91 +6 +6 прохладно 994.4 985.6 +6.5
09 19.09 З 3
{12}
10 км {дождь} 6/6 720 м
[Cb cap]
+14.2 +6.3 59 +13 +16 по сезону 1000.2 991.6
12 19.09 З 2
{10}
10 км {дождь} 8/6 750 м
[Cb cap Ci ing]
+14.7 +6.2 57 +15 +16 по сезону 1004.3 995.6
15 19.09 З 1
{13}
10 км {ливн. осадки} 6/4 800 м
[Cb cap Ci fib]
+8.9 +5.5 79 +8 +8 прохладно 1007.5 998.7 +15.0 3
18 19.09 ЮЗ 1 10 км {ливн. осадки} 3/0
[Ac cuf]
+6.7 +5.1 90 +6 +6 прохладно 1009.4 1000.5
21 19.09 З 1 10 км 3/0
[Ci fib]
+5.6 +4.6 93 +4 +4 прохладно 1010.5 1001.5
00 20.09 ЮЗ 1 10 км 10/10 900 м
[Sc]
+5.1 +4.4 95 +4 +4 по сезону 1012.0 1003.0
03 20.09 штиль 0 10 км {ливн. осадки} 9/9 930 м
[Sc]
+6.3 +5.6 95 +5 +5 по сезону 1012.8 1003.9 +4.5 0.3
06 20.09 З 1 10 км 8/5 840 м
[Sc diur, vesp Ac cast]
+10.1 +6.4 78 +10 +11 по сезону 1014.2 1005.3
09 20.09 Ю 1 10 км 8/8 870 м
[Sc diur, vesp]
+12.4 +4.6 59 +13 +14 по сезону 1014.1 1005.3
12 20.09 Ю 2 10 км 5/5 870 м
[Sc]
+12.1 +3.5 56 +11 +13 прохладно 1013.5 1004.7
15 20.09 штиль 0 10 км 5/5 900 м
[Sc]
+8.6 +5.3 80 +8 +8 прохладно 1013.1 1004.2 +13.7
18 20.09 В 1 10 км 4/4 900 м
[Sc]
+7.1 +5.2 88 +6 +6 по сезону 1013.2 1004.3

 

Местоположение метеостанции Димитровград (Ульяновская область, Россия): широта 54.23 долгота 49.60 высота над уровнем моря 73 м.

В архиве по умолчанию представлена погода в Димитровграде за последнюю неделю. Архивные данные за месяц целиком и за предыдущие месяцы, начиная с января 2011 года, Вы можете получить, выбрав интересующий диапазон дат из раскрывающегося списка и нажав кнопку "Ввод!".


*Определитесь, кто Вы:
робот инопланетянин человек

Внимание! Время в таблицах - всемирное. Для получения местного времени необходимо прибавить поправку, которая равна 4 ч.

Смотрите также архив погоды в соседних городах и на ближайших метеорологических станциях:

Погода в Сенгилее (Ульяновская область, Россия) (60 км)
Погода в Чулпаново (Татарстан, Россия) (61 км)
Погода в Тольятти (Самарская область, Россия) (80 км)
Погода в Тольятти (дамба) (Самарская область, Россия) (85 км)
Погода в Новодевичьем (Самарская область, Россия) (86 км)
Погода в Ульяновске (Ульяновская область, Россия) (89 км)
Погода в Курумоче (Самарская область, Россия) (89 км)
Погода в Тетюшах (Татарстан, Россия) (96 км)
Погода в Челно-Вершинах (Самарская область, Россия) (100 км)
Погода в Аксубаево (Татарстан, Россия) (101 км)

Пояснения к столбцам:

Ветер - указаны скорость ветра в м/с - средняя за 10 мин, порывы в срок и между сроками (в фигурных скобках) и направление, откуда дует ветер: С - северный, СВ - северо-восточный, В - восточный, ЮВ - юго-восточный, Ю - южный, ЮЗ - юго-западный, З - западный, СЗ - северо-западный.
Видимость - горизонтальная дальность видимости в метрах или километрах. При видимости от 1 до 10 км при отсутствии осадков обычно наблюдается дымка, при ухудшении видимости до 1 км и менее - туман. В сухую погоду видимость может ухудшаться дымом, пылью или мглою.
Явления - указаны атмосферные явления, наблюдавшиеся в срок или в последний час перед сроком; фигурными скобками обозначены явления, наблюдавшиеся между сроками (за 1-3 часа до срока); квадратными скобками обозначены град или гололедные отложения с указанием их диаметра в мм.
Облачность - указаны через наклонную черту общая и нижняя облачность в баллах и высота нижней границы облаков в метрах; квадратными скобками обозначены формы облаков: Ci - перистые, Cs - перисто-слоистые, Cc - перисто-кучевые, Ac - высококучевые, As - высокослоистые, Sc - слоисто-кучевые, Ns - слоисто-дождевые, Cu - кучевые, Cb - кучево-дождевые. Подробнее классификацию облаков см. в Атласе облаков (PDF).
T - Температура воздуха - температура, измеренная на высоте 2 м над землей.
Td - Температура точки росы - температура, при понижении до которой содержащийся в воздухе водяной пар достигнет насыщения.
f - Относительная влажность воздуха - влажноcть воздуха, измеренная на высоте 2 м над землей.
Te - Эффективная температура - температура, которую ощущает одетый по сезону человек в тени. Характеристика душности погоды. При расчете учитывается влияние влажности воздуха и скорости ветра на теплоощущения человека.
Tes - Эффективная температура на солнце - температура, которую ощущает человек, с поправкой на солнечный нагрев. Характеристика знойности погоды. Зависит от высоты солнца над горизонтом, облачности и скорости ветра. Ночью, в пасмурную погоду, а также при ветре 12 м/с и более поправка равна нулю.
P - Атмосферное давление - приведенное к уровню моря атмосферное давление.
Po - Атмосферное давление - измеренное на уровне метеостанции атмосферное давление.
Tmin - Минимальная температура - минимум температуры воздуха на высоте 2 м над землей.
Tmax - Максимальная температура - максимум температуры воздуха на высоте 2 м над землей.
R - Количество осадков - Количество выпавших осадков за период времени, мм. При наведении курсора мыши на число - период времени, за который выпало указанное количество осадков.
R24 - Количество осадков - Количество выпавших осадков за 24 часа, мм.
S - Снежный покров - Высота снежного покрова, см. При наведении курсора мыши на число - состояние снежного покрова и степень покрытия местности в баллах.